SHT2K EGLL-EGCC

Flight info

Callsign SHT2K
Flight time 0h 31m
Altitude 18000
Route ULTIB1J ULTIB T420 ELVOS ELVOS1M
Aircraft A320/M-SDE3FGHIRWY/LB1

Departure

Time 2026-05-05 09:25
Airport London Heathrow Airport (EGLL)

Arrival

Time 2026-05-05 09:56
Airport Manchester Airport (EGCC)
Time Latitude Longitude Altitude Speed Heading
2026-05-05 09:08 51.47270 -0.48589 86 ft 0 kts 270°
2026-05-05 09:17 51.47270 -0.48586 86 ft 1 kts 270°
2026-05-05 09:17 51.47271 -0.48559 87 ft 3 kts 270°
2026-05-05 09:17 51.47271 -0.48527 89 ft 3 kts 267°
2026-05-05 09:18 51.47274 -0.48497 88 ft 3 kts 239°
2026-05-05 09:18 51.47285 -0.48478 90 ft 3 kts 192°
2026-05-05 09:18 51.47296 -0.48476 88 ft 2 kts 180°
2026-05-05 09:18 51.47300 -0.48476 88 ft 0 kts 180°
2026-05-05 09:20 51.47272 -0.48458 87 ft 9 kts 137°
2026-05-05 09:20 51.47255 -0.48363 87 ft 10 kts 146°
2026-05-05 09:21 51.47179 -0.48357 88 ft 12 kts 179°
2026-05-05 09:21 51.47088 -0.48356 89 ft 14 kts 179°
2026-05-05 09:21 51.46980 -0.48354 90 ft 17 kts 179°
2026-05-05 09:21 51.46855 -0.48354 86 ft 19 kts 180°
2026-05-05 09:22 51.46745 -0.48386 88 ft 14 kts 241°
2026-05-05 09:22 51.46742 -0.48553 86 ft 16 kts 269°
2026-05-05 09:22 51.46731 -0.48729 90 ft 16 kts 232°
2026-05-05 09:22 51.46716 -0.48744 87 ft 2 kts 203°
2026-05-05 09:23 51.46700 -0.48747 89 ft 4 kts 182°
2026-05-05 09:23 51.46634 -0.48752 88 ft 9 kts 185°
2026-05-05 09:23 51.46567 -0.48785 88 ft 11 kts 199°
2026-05-05 09:23 51.46490 -0.48753 88 ft 13 kts 131°
2026-05-05 09:24 51.46478 -0.48596 86 ft 18 kts 89°
2026-05-05 09:24 51.46479 -0.48288 88 ft 65 kts 90°
2026-05-05 09:24 51.46482 -0.47208 87 ft 125 kts 90°
2026-05-05 09:24 51.46485 -0.45567 149 ft 163 kts 89°
2026-05-05 09:25 51.46491 -0.43852 856 ft 157 kts 90°
2026-05-05 09:25 51.46534 -0.42077 1466 ft 164 kts 77°
2026-05-05 09:25 51.47012 -0.40353 1778 ft 181 kts 49°
2026-05-05 09:25 51.47878 -0.38730 2113 ft 201 kts 48°
2026-05-05 09:26 51.48825 -0.36938 2576 ft 222 kts 48°
2026-05-05 09:26 51.49874 -0.34940 3143 ft 241 kts 49°
2026-05-05 09:26 51.50941 -0.32890 4215 ft 239 kts 50°
2026-05-05 09:26 51.51995 -0.30791 4890 ft 238 kts 57°
2026-05-05 09:27 51.52657 -0.28372 5323 ft 239 kts 71°
2026-05-05 09:27 51.53200 -0.25835 5565 ft 240 kts 68°
2026-05-05 09:27 51.54096 -0.23614 5828 ft 240 kts 43°
2026-05-05 09:27 51.55593 -0.22302 5976 ft 258 kts 13°
2026-05-05 09:28 51.57412 -0.22347 6097 ft 269 kts 351°
2026-05-05 09:28 51.59268 -0.22888 6993 ft 272 kts 349°
2026-05-05 09:28 51.61129 -0.23520 7910 ft 275 kts 344°
2026-05-05 09:28 51.62874 -0.24802 8780 ft 279 kts 328°
2026-05-05 09:29 51.64533 -0.26455 9694 ft 281 kts 328°
2026-05-05 09:29 51.66222 -0.28105 10475 ft 286 kts 329°
2026-05-05 09:29 51.67943 -0.29768 11253 ft 289 kts 329°
2026-05-05 09:29 51.69689 -0.31446 11981 ft 296 kts 329°
2026-05-05 09:30 51.71489 -0.33175 12631 ft 315 kts 330°
2026-05-05 09:30 51.73410 -0.35024 13437 ft 329 kts 329°
2026-05-05 09:30 51.75416 -0.36962 14202 ft 342 kts 329°
2026-05-05 09:30 51.77498 -0.38978 14939 ft 354 kts 329°
2026-05-05 09:31 51.79642 -0.41056 15707 ft 365 kts 329°
2026-05-05 09:31 51.81840 -0.43185 16584 ft 372 kts 328°
2026-05-05 09:31 51.84083 -0.45357 17458 ft 380 kts 328°
2026-05-05 09:31 51.86390 -0.47596 17870 ft 393 kts 328°
2026-05-05 09:32 51.88778 -0.49922 17983 ft 409 kts 328°
2026-05-05 09:32 51.91270 -0.52353 17994 ft 425 kts 328°
2026-05-05 09:32 51.93821 -0.54839 18011 ft 431 kts 328°
2026-05-05 09:32 51.96397 -0.57349 17999 ft 433 kts 328°
2026-05-05 09:33 51.99017 -0.59908 17995 ft 446 kts 328°
2026-05-05 09:33 52.01691 -0.62517 17991 ft 449 kts 328°
2026-05-05 09:33 52.04367 -0.65133 17995 ft 449 kts 328°
2026-05-05 09:33 52.07043 -0.67754 17993 ft 448 kts 328°
2026-05-05 09:34 52.09709 -0.70379 18013 ft 448 kts 327°
2026-05-05 09:34 52.12391 -0.73027 18001 ft 453 kts 327°
2026-05-05 09:34 52.15087 -0.75687 17996 ft 454 kts 327°
2026-05-05 09:34 52.17790 -0.78353 17995 ft 454 kts 328°
2026-05-05 09:35 52.20490 -0.81022 17998 ft 454 kts 327°
2026-05-05 09:35 52.25893 -0.86383 17992 ft 455 kts 327°
2026-05-05 09:35 52.28592 -0.89062 18000 ft 454 kts 327°
2026-05-05 09:36 52.31285 -0.91736 18003 ft 452 kts 327°
2026-05-05 09:36 52.33935 -0.94369 17990 ft 451 kts 327°
2026-05-05 09:36 52.36618 -0.97039 17996 ft 451 kts 327°
2026-05-05 09:36 52.39300 -0.99718 18014 ft 451 kts 327°
2026-05-05 09:37 52.41972 -1.02394 17997 ft 450 kts 327°
2026-05-05 09:37 52.44644 -1.05073 18004 ft 450 kts 327°
2026-05-05 09:37 52.47315 -1.07751 18005 ft 450 kts 327°
2026-05-05 09:37 52.49989 -1.10438 18006 ft 450 kts 327°
2026-05-05 09:38 52.52661 -1.13129 18014 ft 450 kts 327°
2026-05-05 09:38 52.55332 -1.15825 18012 ft 450 kts 327°
2026-05-05 09:38 52.57994 -1.18517 18015 ft 450 kts 327°
2026-05-05 09:38 52.60663 -1.21212 18016 ft 450 kts 327°
2026-05-05 09:39 52.63333 -1.23907 18016 ft 449 kts 327°
2026-05-05 09:39 52.65997 -1.26600 18009 ft 449 kts 327°
2026-05-05 09:39 52.68660 -1.29298 18008 ft 449 kts 327°
2026-05-05 09:39 52.71320 -1.31995 18009 ft 449 kts 327°
2026-05-05 09:40 52.73948 -1.34667 18010 ft 449 kts 327°
2026-05-05 09:40 52.76611 -1.37380 18024 ft 449 kts 326°
2026-05-05 09:40 52.79260 -1.40086 18024 ft 448 kts 326°
2026-05-05 09:40 52.81913 -1.42801 18023 ft 448 kts 326°
2026-05-05 09:41 52.84558 -1.45513 18026 ft 447 kts 326°
2026-05-05 09:41 52.87182 -1.48205 18019 ft 433 kts 326°
2026-05-05 09:41 52.89681 -1.50759 17688 ft 413 kts 326°
2026-05-05 09:41 52.92095 -1.53231 17165 ft 403 kts 326°
2026-05-05 09:42 52.94457 -1.55659 16643 ft 397 kts 326°
2026-05-05 09:42 52.96783 -1.58060 16121 ft 390 kts 326°
2026-05-05 09:42 52.99049 -1.60401 15623 ft 376 kts 326°
2026-05-05 09:42 53.01228 -1.62655 15135 ft 362 kts 326°
2026-05-05 09:43 53.03333 -1.64833 14650 ft 351 kts 326°
2026-05-05 09:43 53.05300 -1.67103 14157 ft 338 kts 317°
2026-05-05 09:43 53.06899 -1.69873 13677 ft 327 kts 309°
2026-05-05 09:43 53.08345 -1.72693 13141 ft 314 kts 309°
2026-05-05 09:44 53.09724 -1.75370 12623 ft 304 kts 309°
2026-05-05 09:44 53.11083 -1.78002 12110 ft 295 kts 309°
2026-05-05 09:44 53.12404 -1.80562 11592 ft 289 kts 309°
2026-05-05 09:44 53.13705 -1.83087 11095 ft 286 kts 309°
2026-05-05 09:45 53.14999 -1.85602 10610 ft 285 kts 310°
2026-05-05 09:45 53.16285 -1.88105 10128 ft 284 kts 310°
2026-05-05 09:45 53.17566 -1.90596 9675 ft 282 kts 310°
2026-05-05 09:45 53.18839 -1.93074 9161 ft 280 kts 310°
2026-05-05 09:46 53.20096 -1.95531 8681 ft 276 kts 310°
2026-05-05 09:46 53.21320 -1.97924 8345 ft 265 kts 310°
2026-05-05 09:46 53.22505 -2.00247 8125 ft 264 kts 310°
2026-05-05 09:46 53.23710 -2.02611 8051 ft 270 kts 310°
2026-05-05 09:47 53.24818 -2.05144 8048 ft 270 kts 295°
2026-05-05 09:47 53.25188 -2.08198 8048 ft 272 kts 267°
2026-05-05 09:47 53.24830 -2.11312 8056 ft 274 kts 257°
2026-05-05 09:47 53.24322 -2.14385 8053 ft 275 kts 256°
2026-05-05 09:48 53.23811 -2.17393 8050 ft 261 kts 255°
2026-05-05 09:48 53.23320 -2.20230 7841 ft 251 kts 256°
2026-05-05 09:48 53.22840 -2.23020 7462 ft 249 kts 255°
2026-05-05 09:48 53.22369 -2.25749 7093 ft 247 kts 255°
2026-05-05 09:49 53.21896 -2.28482 6700 ft 242 kts 255°
2026-05-05 09:49 53.21444 -2.31147 6337 ft 236 kts 256°
2026-05-05 09:49 53.20998 -2.33743 5944 ft 230 kts 255°
2026-05-05 09:49 53.20562 -2.36275 5559 ft 225 kts 255°
2026-05-05 09:50 53.20115 -2.38753 5183 ft 221 kts 256°
2026-05-05 09:50 53.19660 -2.41186 4799 ft 219 kts 254°
2026-05-05 09:50 53.19208 -2.43606 4395 ft 218 kts 255°
2026-05-05 09:50 53.18750 -2.46013 4013 ft 216 kts 256°
2026-05-05 09:51 53.18392 -2.48412 3633 ft 208 kts 274°
2026-05-05 09:51 53.18783 -2.50553 3459 ft 185 kts 311°
2026-05-05 09:51 53.19752 -2.51784 3360 ft 174 kts 341°
2026-05-05 09:51 53.20935 -2.52259 3290 ft 175 kts 353°
2026-05-05 09:52 53.22145 -2.52109 3213 ft 176 kts 14°
2026-05-05 09:52 53.23257 -2.51227 3172 ft 180 kts 34°
2026-05-05 09:52 53.24136 -2.49727 3052 ft 180 kts 47°
2026-05-05 09:52 53.24902 -2.48145 2866 ft 172 kts 47°
2026-05-05 09:53 53.25631 -2.46646 2681 ft 167 kts 47°
2026-05-05 09:53 53.26368 -2.45131 2422 ft 168 kts 47°
2026-05-05 09:53 53.27100 -2.43625 2186 ft 165 kts 47°
2026-05-05 09:53 53.27820 -2.42146 1954 ft 165 kts 47°
2026-05-05 09:54 53.28540 -2.40664 1740 ft 164 kts 49°
2026-05-05 09:54 53.29259 -2.39187 1506 ft 163 kts 48°
2026-05-05 09:54 53.29949 -2.37762 1307 ft 149 kts 47°
2026-05-05 09:54 53.30586 -2.36450 1072 ft 140 kts 47°
2026-05-05 09:55 53.31199 -2.35189 865 ft 140 kts 48°
2026-05-05 09:55 53.31809 -2.33935 687 ft 138 kts 47°
2026-05-05 09:55 53.32411 -2.32680 538 ft 138 kts 47°
2026-05-05 09:55 53.33018 -2.31436 353 ft 137 kts 46°
2026-05-05 09:56 53.33607 -2.30225 238 ft 124 kts 55°
2026-05-05 09:56 53.34044 -2.29308 234 ft 71 kts 51°
2026-05-05 09:56 53.34309 -2.28767 230 ft 54 kts 50°
2026-05-05 09:56 53.34510 -2.28364 231 ft 30 kts 45°
2026-05-05 09:57 53.34665 -2.28191 233 ft 27 kts 20°
2026-05-05 09:57 53.34830 -2.28086 233 ft 23 kts 21°
2026-05-05 09:57 53.34915 -2.27971 233 ft 13 kts 50°
2026-05-05 09:57 53.34985 -2.27830 233 ft 18 kts 50°
2026-05-05 09:58 53.35072 -2.27655 233 ft 21 kts 50°
2026-05-05 09:58 53.35169 -2.27452 233 ft 24 kts 51°
2026-05-05 09:58 53.35263 -2.27258 233 ft 20 kts 50°
2026-05-05 09:58 53.35387 -2.27210 234 ft 21 kts 328°
2026-05-05 09:59 53.35490 -2.27347 240 ft 16 kts 320°
2026-05-05 09:59 53.35544 -2.27420 234 ft 4 kts 321°
2026-05-05 09:59 53.35550 -2.27428 234 ft 1 kts 321°
2026-05-05 09:59 53.35568 -2.27453 233 ft 9 kts 321°
2026-05-05 10:00 53.35654 -2.27569 233 ft 18 kts 321°
2026-05-05 10:00 53.35774 -2.27671 235 ft 20 kts 328°
2026-05-05 10:00 53.35843 -2.27736 233 ft 8 kts
2026-05-05 10:00 53.35927 -2.27727 233 ft 15 kts
2026-05-05 10:01 53.36022 -2.27805 233 ft 17 kts 319°
2026-05-05 10:01 53.36123 -2.27939 233 ft 20 kts 317°
2026-05-05 10:01 53.36225 -2.28107 233 ft 21 kts 314°
2026-05-05 10:01 53.36331 -2.28285 233 ft 21 kts 314°
2026-05-05 10:02 53.36409 -2.28437 233 ft 15 kts 302°
2026-05-05 10:02 53.36479 -2.28576 233 ft 16 kts 315°
2026-05-05 10:02 53.36562 -2.28719 233 ft 18 kts 310°
2026-05-05 10:02 53.36619 -2.28873 233 ft 12 kts 312°
2026-05-05 10:03 53.36654 -2.28979 233 ft 11 kts 315°
2026-05-05 10:03 53.36710 -2.29070 233 ft 12 kts 316°
2026-05-05 10:03 53.36783 -2.29104 233 ft 13 kts 18°
2026-05-05 10:03 53.36864 -2.29039 233 ft 14 kts 44°
2026-05-05 10:04 53.36935 -2.28921 233 ft 15 kts 45°
2026-05-05 10:04 53.36995 -2.28821 233 ft 6 kts 45°
2026-05-05 10:04 53.36998 -2.28780 233 ft 4 kts 118°
2026-05-05 10:04 53.36977 -2.28743 233 ft 5 kts 135°
2026-05-05 10:05 53.36955 -2.28706 233 ft 1 kts 135°
2026-05-05 10:05 53.36951 -2.28700 233 ft 0 kts 135°